NOAA 16 DEB, 41207

Orbit data source: Space-Track

NOAA 16 DEB, 41207 is space debris in SSO originally from a launch on Thu, 21 Sep 2000 UTC launched from the Air Force Western Test Range (AFWTR). Debris objects in space refer to the collection of defunct objects orbiting the Earth. Examples of debris include non-operational satellites, rocket bodies, and fragments generated from explosions, collisions, or faulty payload assembly.

Loading next visibility...
Identifier
41207, 2000-055DL
Orbit
SSO
Country
Flag of USUS
Related business
Manufacturer
Unknown
Mission
Spacecraft
Bus & Motor
Unknown
Mass
Unknown
Launch date (UTC)
2000-09-21 (25 years ago)
Launch vehicle
Unknown
Launch site
Air Force Western Test Range (AFWTR)
Object type
Payload
Rocket body
Debris
Shape & HBR
Unknown
Radar Cross Section
Small (<0.1 m²)

Expand to show TLE details & history
Last TLE update: 6 days ago

TLE from 6 days ago
0 NOAA 16 DEB
1 41207U 00055DL  25253.11994462  .00009971  00000-0  17175-2 0  9996
2 41207  98.9187 125.6296 0042805  55.0390 305.4821 14.68166504511191
Epoch: 2025-09-10T02:52Z
TLE epoch observation values (Epoch: 2025-09-10T02:52:43.215Z)
Latitude
0.00003°
Longitude
93.0486°
Altitude
652.479 km
Speed
7.541 km/s
True Right ascension
08h 22m 31s
True Declination
0° 00' 00"
Sunlit
Object was in daylight at epoch
Visualization orbit readout
Latitude
Unknown
Longitude
Unknown
Altitude
Unknown
Speed
Unknown
Apparent Right ascension
Unknown
Apparent Declination
Unknown
Sunlit
N/A
Visualization observer readout
Local Sidereal Time
00:31:44
Azimuth
Unknown
Elevation
Unknown
Doppler factor
Unknown
Orbital elements
Apogee altitude
694.176 km
Perigee altitude
633.888 km
Semi-major axis
7,042.169 km
Eccentricity
0.00428
Inclination
98.9187°
RAAN
125.6296°
Arg. of periapsis
55.039°
True anomaly
305.08144°
Mean anomaly
305.4821°
Eccentric anomaly
305.28189°
Mean motion
3.67268 °/min
Orbital period
98.02 mins
BSTAR
0.0017175
Loading maneuver chart data...
Computing Atmospheric mass density...
Loading historical data...
Loading historical data...
Loading historical data...
Loading historical data...
Loading historical data...
Loading historical data...
Loading historical data...

Documentation

Showing up to 5 results
|